[[{"header":{"parameterUnit":"m.s-1","parameterCategory":1,"la1":30.2991,"la2":30.254,"lo1":-89.0895,"lo2":-89.0444,"dy":0.0017,"dx":0.0017,"nx":28,"ny":28,"refTime":"2025-01-26T03:00:00:Z","depth":0,"parameterNumber":2,"parameterNumberName":"U-component_of_WINDS"},"data":[0,0,0,0,0,0,0,0,0,0,0,0,0,0,0,0,0,0,0,0,0,0,0,0,0,0,0,0,0,0,0,0,0,0,0,0,0,0,0,0,0,0,0,0,0,0,0,0,0,0,0,0,0,0,0,0,0,0,-1.826,-1.826,0,-1.8283,-1.8284,-1.8284,-1.8157,-1.8153,-1.8149,-1.8146,-1.8177,-1.8181,-1.8185,0,0,0,0,0,0,0,0,0,0,0,0,0,-1.8112,-1.8116,-1.826,-1.826,-1.826,-1.8283,-1.8284,-1.8284,-1.8157,-1.8153,-1.8148,-1.8144,-1.8175,-1.818,-1.8185,0,0,0,0,0,0,0,0,0,0,0,0,0,-1.8161,-1.8117,-1.826,-1.82,-1.8194,-1.8283,-1.8284,-1.8284,-1.8158,-1.8153,-1.8147,-1.8142,-1.8174,-1.818,-1.8186,-1.8336,0,0,-1.8206,-1.8208,0,0,0,0,0,0,0,0,-1.8158,-1.8166,-1.8208,-1.8204,-1.8198,-1.8211,-1.8243,-1.8302,-1.816,-1.8172,-1.8146,-1.8139,-1.8193,-1.8198,-1.8214,-1.8337,-1.8338,-1.8206,-1.821,-1.8213,-1.8215,0,0,0,0,0,0,0,-1.8155,-1.8164,-1.8269,-1.8209,-1.8203,-1.8174,-1.8175,-1.8254,-1.8214,-1.8171,-1.8161,-1.8166,-1.8189,-1.8208,-1.8214,-1.8339,-1.8206,-1.8212,-1.8216,-1.8218,-1.859,-1.8595,0,0,0,0,0,0,-1.8159,-1.8163,-1.8268,-1.827,-1.8164,-1.8181,-1.8182,-1.8213,-1.8212,-1.8207,-1.817,-1.816,-1.82,-1.8207,-1.8215,-1.8392,-1.8213,-1.8219,-1.8222,-1.8584,-1.8591,-1.8597,0,0,0,0,0,0,-1.8156,-1.8169,-1.8267,-1.8214,-1.8224,-1.819,-1.8225,-1.8216,-1.8235,-1.8212,-1.8205,-1.8197,-1.8196,-1.8206,-1.8307,-1.8391,-1.8222,-1.8227,-1.8576,-1.8586,-1.8594,-1.8747,0,0,0,0,0,0,-1.8152,-1.8169,-1.8223,-1.8216,-1.8227,-1.8357,-1.823,-1.8221,-1.8245,-1.8232,-1.8235,-1.823,-1.8193,-1.8298,-1.8313,-1.8397,-1.8232,-1.8569,-1.8581,-1.8591,-1.8734,-1.876,-1.8782,0,0,0,0,0,-1.8147,-1.8266,-1.8227,-1.824,-1.8294,-1.8362,-1.8369,-1.8322,-1.8253,-1.8309,-1.8294,-1.823,-1.8379,-1.8309,-1.8325,-1.8412,-1.8563,-1.8577,-1.859,-1.8723,-1.8755,-1.8781,0,0,0,0,0,0,-1.8286,-1.8264,-1.822,-1.8339,-1.8354,-1.8341,-1.8409,-1.8356,-1.8392,-1.8378,-1.832,-1.8322,-1.8434,-1.8433,-1.8355,-1.8559,-1.846,-1.8477,-1.8555,-1.8585,-1.8609,-1.8607,-1.8238,0,0,0,0,0,-1.833,-1.8385,-1.8363,-1.8471,-1.848,-1.8444,-1.8472,-1.8434,-1.8448,-1.8454,-1.8446,-1.8464,-1.8515,-1.855,-1.8595,-1.8733,-1.8734,-1.8801,-1.8825,-1.8845,-1.8861,-1.8938,-1.8968,-1.8642,-1.8642,-1.8642,0,0,-1.8423,-1.8417,-1.8456,-1.8499,-1.8505,-1.8566,-1.845,-1.8519,-1.8564,-1.8464,-1.8559,-1.8556,-1.8571,-1.8693,-1.8745,-1.8695,-1.8952,-1.8862,-1.8878,-1.8884,-1.8955,-1.8986,-1.9013,-1.8651,-1.865,-1.8648,0,0,-1.8622,-1.8623,-1.8713,-1.8723,-1.8733,-1.8709,-1.8731,-1.8727,-1.872,-1.8814,-1.8741,-1.8796,-1.8884,-1.8899,-1.8919,-1.9127,-1.9071,-1.9144,-1.927,-1.9345,-1.9371,-1.9393,-1.947,-1.9498,-1.916,-1.916,-1.9161,0,-1.8737,-1.8822,-1.8767,-1.8841,-1.8864,-1.8775,-1.8869,-1.8881,-1.8908,-1.8927,-1.887,-1.898,-1.8984,-1.9109,-1.9161,-1.9178,-1.9204,-1.9143,-1.9371,-1.9393,-1.9413,-1.9486,-1.9515,-1.9169,-1.9168,-1.9167,-1.9166,0,-1.8964,-1.9025,-1.9098,-1.9124,-1.9155,-1.9238,-1.9199,-1.9237,-1.9198,-1.9181,-1.928,-1.9282,-1.9328,-1.9354,-1.9317,-1.9475,-1.9444,-1.938,-1.9279,-1.9454,-1.9522,-1.9549,-1.9182,-1.9179,-1.9176,-1.9174,0,0,-1.9251,-1.9246,-1.9274,-1.9286,-1.9293,-1.9341,-1.9422,-1.9465,-1.9501,-1.9523,-1.9591,-1.9669,-1.9611,-1.9633,-1.9597,-1.9662,-1.9831,-1.959,-1.959,-1.9637,-2.001,-2.0059,-2.0092,-1.9793,-1.9798,-1.9802,-2.0009,0,-1.9448,-1.9583,-1.9538,-1.9677,-1.9735,-1.9653,-1.9724,-1.9738,-1.9725,-1.9774,-1.976,-1.9817,-1.9734,-1.9748,-1.9809,-1.9798,-1.9906,-1.9782,-1.986,-1.9863,-1.986,-2.0127,-2.0179,-2.0374,-2.0035,-2.004,-2.0043,0,-1.9695,-1.9726,-1.9871,-1.987,-1.9893,-1.9958,-1.9995,-2.0042,-2.0058,-2.0044,-2.007,-2.002,-2.0103,-2.0002,-2.0118,-2.0035,-2.0064,-2.0064,-2.0071,-2.0077,-1.9965,-2.0144,-2.0435,-2.0465,-2.0083,-2.008,-2.0077,0,-1.9893,-1.9971,-2.0068,-2.0081,-2.0082,-2.013,-2.0133,-2.0142,-2.0172,-2.0206,-2.0226,-2.0269,-2.0294,-2.033,-2.0296,-2.0224,-2.0418,-2.0313,-2.0412,-2.0413,-2.0457,-2.0455,-2.076,-2.0474,-2.0473,-2.0473,-2.0472,0,-2.0119,-2.0212,-2.0158,-2.0218,-2.0321,-2.0268,-2.0372,-2.0366,-2.0376,-2.0436,-2.0369,-2.0427,-2.0377,-2.0432,-2.0406,-2.0507,-2.0518,-2.0512,-2.0504,-2.0519,-2.052,-2.0539,-2.0525,-2.048,-2.0479,-2.0477,-2.0476,0,-2.0357,-2.0324,-2.0426,-2.0418,-2.0419,-2.0495,-2.0491,-2.0548,-2.053,-2.0607,-2.0623,-2.0596,-2.0658,-2.0626,-2.069,-2.0673,-2.0805,-2.0778,-2.08,-2.0793,-2.0895,-2.0887,-2.1223,-2.1266,-2.0951,-2.0954,-2.0956,0,-2.0504,-2.0573,-2.0574,-2.0608,-2.0616,-2.0672,-2.0702,-2.0654,-2.0689,-2.0713,-2.0769,-2.0824,-2.0866,-2.0969,-2.0957,-2.1007,-2.0982,-2.1097,-2.0989,-2.1003,-2.0987,-2.0984,-2.0992,-2.1119,-2.1123,-2.1126,-2.1128,0,-2.077,-2.075,-2.0795,-2.0835,-2.0872,-2.0902,-2.0927,-2.096,-2.0913,-2.0956,-2.1017,-2.105,-2.1115,-2.1173,-2.1216,-2.1222,-2.117,-2.1162,-2.1188,-2.1205,-2.1215,-2.1214,-2.0861,-2.1155,-2.1152,-2.115,-2.1149,-2.1147,-2.0968,-2.1027,-2.1037,-2.109,-2.1103,-2.1128,-2.1182,-2.1171,-2.122,-2.1269,-2.1239,-2.1312,-2.1329,-2.1382,-2.1396,-2.1454,-2.1409,-2.1446,-2.1456,-2.1466,-2.1481,-2.1204,-2.1462,-2.1461,-2.146,-2.146,-2.1459,0,-2.1232,-2.1234,-2.1283,-2.1319,-2.1362,-2.1306,-2.1331,-2.1371,-2.1436,-2.1455,-2.1497,-2.157,-2.1626,-2.1619,-2.1671,-2.172,-2.1697,-2.1735,-2.1732,-2.1735,-2.1517,-2.149,-2.1753,-2.1753,-2.1753,-2.1753,-2.1753,-2.1753,-2.1374,-2.1472,-2.1454,-2.1559,-2.1561,-2.1631,-2.165,-2.1674,-2.169,-2.1773,-2.1818,-2.1813,-2.1823,-2.1875,-2.1925,-2.1922,-2.1946,-2.1994,-2.1983,-2.1779,-2.175,-2.1722,-2.1697,-2.1999,-2.1999,-2.2196,-2.2198,-2.2199]},{"header":{"parameterUnit":"m.s-1","parameterCategory":1,"la1":30.2991,"la2":30.254,"lo1":-89.0895,"lo2":-89.0444,"dy":0.0017,"dx":0.0017,"nx":28,"ny":28,"refTime":"2025-01-26T03:00:00:Z","depth":0,"parameterNumber":3,"parameterNumberName":"V-component_of_WINDS"},"data":[0,0,0,0,0,0,0,0,0,0,0,0,0,0,0,0,0,0,0,0,0,0,0,0,0,0,0,0,0,0,0,0,0,0,0,0,0,0,0,0,0,0,0,0,0,0,0,0,0,0,0,0,0,0,0,0,0,0,1.2468,1.2468,0,1.2452,1.2452,1.2451,1.2483,1.2484,1.2485,1.2486,1.2462,1.2461,1.2459,0,0,0,0,0,0,0,0,0,0,0,0,0,1.2518,1.2517,1.2468,1.2468,1.2468,1.2452,1.2452,1.2451,1.2483,1.2484,1.2485,1.2487,1.2463,1.2461,1.2459,0,0,0,0,0,0,0,0,0,0,0,0,0,1.2498,1.2517,1.2468,1.2481,1.2483,1.2452,1.2452,1.2451,1.2482,1.2484,1.2486,1.2487,1.2463,1.2461,1.2459,1.2412,0,0,1.2451,1.245,0,0,0,0,0,0,0,0,1.25,1.2497,1.248,1.248,1.2482,1.2471,1.2461,1.2438,1.2482,1.2482,1.2486,1.2488,1.2463,1.2461,1.2454,1.2411,1.241,1.2451,1.245,1.2448,1.2448,0,0,0,0,0,0,0,1.2501,1.2497,1.2461,1.2479,1.248,1.2486,1.2485,1.2456,1.2464,1.2482,1.2485,1.2483,1.2464,1.2457,1.2454,1.2409,1.2451,1.2449,1.2447,1.2446,1.2323,1.2322,0,0,0,0,0,0,1.2502,1.2498,1.2462,1.2461,1.2495,1.2484,1.2483,1.2473,1.2464,1.2465,1.2481,1.2484,1.246,1.2457,1.2453,1.2396,1.2449,1.2446,1.2445,1.2325,1.2323,1.2321,0,0,0,0,0,0,1.2503,1.2498,1.2462,1.248,1.2476,1.2481,1.247,1.2472,1.2464,1.2464,1.2464,1.2473,1.2461,1.2457,1.2422,1.2395,1.2445,1.2443,1.2327,1.2325,1.2322,1.2282,0,0,0,0,0,0,1.2504,1.2498,1.2482,1.248,1.2475,1.2433,1.2468,1.247,1.2461,1.2464,1.2456,1.2456,1.2462,1.2425,1.2419,1.2393,1.2441,1.233,1.2326,1.2323,1.2285,1.2278,1.2272,0,0,0,0,0,1.2506,1.2471,1.2481,1.2477,1.2456,1.2432,1.2429,1.2439,1.2459,1.2441,1.2441,1.2456,1.24,1.2421,1.2415,1.2388,1.2331,1.2327,1.2323,1.2288,1.2279,1.2272,0,0,0,0,0,0,1.2468,1.247,1.2482,1.2446,1.2439,1.2438,1.2416,1.243,1.2415,1.2418,1.2429,1.2427,1.2389,1.2385,1.2409,1.234,1.2368,1.2363,1.2344,1.2336,1.2329,1.2329,1.2439,0,0,0,0,0,1.2456,1.2438,1.2441,1.2408,1.2404,1.2411,1.2401,1.2409,1.2401,1.2397,1.2394,1.2384,1.2363,1.235,1.2331,1.2286,1.2282,1.2263,1.2256,1.2251,1.2245,1.2217,1.2208,1.2308,1.2308,1.2308,0,0,1.2429,1.2429,1.2417,1.2401,1.2396,1.2375,1.2408,1.2385,1.2369,1.2393,1.236,1.2357,1.2346,1.2305,1.2287,1.23,1.2217,1.2246,1.2241,1.2238,1.2212,1.2203,1.2194,1.2305,1.2305,1.2306,0,0,1.237,1.237,1.2342,1.2337,1.233,1.2334,1.2327,1.2324,1.2324,1.2291,1.2309,1.2288,1.2254,1.2244,1.2235,1.2172,1.2184,1.2165,1.2128,1.2101,1.2093,1.2086,1.2061,1.2052,1.216,1.216,1.216,0,1.2338,1.231,1.2325,1.2301,1.2292,1.2315,1.2285,1.2279,1.2265,1.2257,1.2274,1.223,1.2224,1.218,1.2164,1.2157,1.2147,1.2165,1.2094,1.2087,1.2081,1.2056,1.2047,1.2157,1.2158,1.2158,1.2158,0,1.2269,1.2249,1.2227,1.2215,1.2204,1.2177,1.2185,1.2171,1.218,1.2182,1.2147,1.2141,1.212,1.2111,1.2119,1.2067,1.2075,1.2093,1.2121,1.2068,1.2045,1.2036,1.2154,1.2155,1.2156,1.2156,0,0,1.2184,1.2182,1.2173,1.2167,1.2161,1.2145,1.2117,1.21,1.2086,1.2076,1.2051,1.2021,1.2037,1.2026,1.2034,1.2011,1.1957,1.203,1.203,1.2014,1.1895,1.188,1.1869,1.1966,1.1965,1.1963,1.1895,0,1.2124,1.208,1.2092,1.2046,1.2026,1.2048,1.2024,1.2016,1.2017,1.1998,1.1998,1.1975,1.1999,1.1993,1.1971,1.1968,1.1933,1.1974,1.1939,1.1938,1.1939,1.1858,1.1842,1.1778,1.1886,1.1885,1.1884,0,1.2048,1.2036,1.1989,1.1985,1.1977,1.1956,1.1939,1.1922,1.1912,1.1914,1.1902,1.1913,1.1883,1.1913,1.1869,1.1897,1.1884,1.188,1.1878,1.1872,1.1906,1.1847,1.1758,1.1747,1.187,1.1871,1.1872,0,1.1987,1.196,1.1928,1.1923,1.1918,1.1902,1.1898,1.1891,1.1879,1.1864,1.1855,1.1836,1.1825,1.1808,1.1812,1.1835,1.1766,1.1798,1.1763,1.1763,1.1746,1.1746,1.165,1.1742,1.1742,1.1742,1.1743,0,1.1917,1.1887,1.1901,1.188,1.1846,1.1859,1.1824,1.1823,1.1816,1.1793,1.1811,1.1789,1.1798,1.1775,1.1778,1.1739,1.1735,1.1733,1.1733,1.1729,1.1729,1.1719,1.1722,1.174,1.174,1.1741,1.1741,0,1.1843,1.1852,1.1818,1.1817,1.1815,1.1789,1.1787,1.1766,1.1769,1.174,1.1734,1.1736,1.1711,1.1714,1.1685,1.1687,1.1638,1.1645,1.1642,1.1642,1.1607,1.1609,1.1498,1.1482,1.1587,1.1586,1.1586,0,1.1796,1.1774,1.1771,1.1758,1.1754,1.1734,1.1722,1.1734,1.172,1.1707,1.1687,1.1663,1.1645,1.1602,1.1599,1.1576,1.1581,1.1544,1.1577,1.1573,1.1576,1.1576,1.1572,1.1536,1.1535,1.1534,1.1533,0,1.1712,1.1717,1.1701,1.1686,1.1672,1.1659,1.1649,1.1637,1.1647,1.163,1.1605,1.1591,1.1562,1.1537,1.1515,1.1508,1.152,1.1523,1.1513,1.1507,1.1505,1.1503,1.162,1.1525,1.1525,1.1526,1.1526,1.1527,1.1648,1.1628,1.1622,1.1603,1.1597,1.1586,1.1566,1.1567,1.1547,1.1526,1.1533,1.1504,1.1492,1.1465,1.1456,1.143,1.1443,1.143,1.1426,1.1422,1.1416,1.1512,1.1427,1.1427,1.1427,1.1427,1.1428,0,1.1562,1.1559,1.1542,1.1527,1.1511,1.1528,1.1516,1.15,1.1476,1.1465,1.1447,1.1417,1.1392,1.1388,1.1363,1.1344,1.1348,1.1336,1.1336,1.1334,1.1408,1.1417,1.1333,1.1333,1.1333,1.1333,1.1333,1.1333,1.1515,1.1481,1.1486,1.1448,1.1445,1.1418,1.141,1.1399,1.139,1.1357,1.1337,1.1336,1.1326,1.1301,1.1278,1.1277,1.1265,1.125,1.1251,1.132,1.1329,1.1338,1.1347,1.1249,1.1249,1.1179,1.1178,1.1178]}]]